Date,TemperatureHighF,TemperatureAvgF,TemperatureLowF,DewpointHighF,DewpointAvgF,DewpointLowF,HumidityHigh,HumidityAvg,HumidityLow,PressureMaxIn,PressureMinIn,WindSpeedMaxMPH,WindSpeedAvgMPH,GustSpeedMaxMPH,PrecipitationSumIn
2013-1-24,25.2,16.7,9.5,12.2,2.5,-99.9,78,56,39,30.20,29.77,16,-10,0,0.00
2013-1-25,25.7,15.9,9.9,25.5,11.0,-0.3,99,82,57,30.16,29.76,15,4,0,0.00
2013-1-26,37.4,27.0,20.1,28.2,22.0,17.1,99,82,57,30.13,29.76,14,5,0,0.07
2013-1-27,32.4,22.9,11.8,24.7,19.4,11.1,99,87,69,30.28,30.13,11,3,0,0.00
2013-1-28,66.7,43.9,29.1,43.7,36.9,24.6,99,79,42,30.17,29.98,7,2,0,0.13
2013-1-29,73.2,55.1,46.0,54.1,47.3,44.1,95,77,43,30.03,29.85,11,4,0,0.00
2013-1-30,59.7,56.0,43.5,58.8,54.9,43.2,99,96,90,29.85,29.17,20,9,0,3.37
2013-1-31,45.0,30.5,25.5,43.9,23.1,16.0,99,75,55,29.66,29.19,12,6,0,0.03
2013-2-1,32.5,19.0,9.9,28.3,8.7,1.7,98,64,42,30.03,29.52,15,6,0,0.00
2013-2-2,32.0,21.2,9.3,25.9,13.6,4.0,99,74,41,30.03,29.71,8,3,0,0.00
2013-2-3,32.7,27.2,23.2,28.4,22.9,18.3,98,84,70,29.71,29.56,14,5,0,0.02
2013-2-4,40.3,27.4,17.8,25.1,18.3,12.9,83,69,50,29.81,29.65,21,4,0,0.02
2013-2-5,46.9,38.7,35.6,34.8,29.8,23.1,84,71,57,29.72,29.63,9,4,0,0.00
2013-2-6,53.8,37.9,28.2,33.4,27.1,22.4,88,68,33,30.06,29.70,9,3,0,0.00
2013-2-7,33.6,30.3,28.2,32.7,28.6,22.3,99,94,63,30.09,29.82,7,4,0,0.01
2013-2-8,45.1,32.9,28.0,39.0,30.1,22.8,99,90,71,29.81,29.59,18,4,0,0.47
2013-2-9,45.7,29.5,21.7,22.9,17.4,11.9,83,63,29,30.11,29.76,15,5,0,0.00
2013-2-10,46.4,33.1,22.1,32.6,19.7,13.0,98,60,37,30.19,29.93,11,4,0,0.10
2013-2-11,58.3,48.2,33.4,50.8,42.2,27.5,99,81,52,29.93,29.70,12,5,0,0.09
2013-2-12,56.8,40.9,32.9,27.4,22.5,18.8,65,49,26,29.81,29.70,16,5,0,0.00
2013-2-13,39.6,36.7,30.9,39.1,34.1,26.3,99,91,59,29.70,29.36,12,4,0,0.12
2013-2-14,54.1,35.7,26.1,29.8,25.0,21.6,95,68,32,29.79,29.56,11,4,0,0.00
2013-2-15,54.3,37.1,27.0,36.9,29.9,26.2,99,78,40,29.83,29.69,10,2,0,0.02
2013-2-16,30.0,26.2,18.7,27.9,19.5,11.3,94,76,52,29.73,29.56,10,4,0,0.00
2013-2-17,26.1,17.8,11.3,13.2,5.8,1.2,85,60,40,29.91,29.59,28,6,0,0.00
2013-2-18,54.7,31.1,12.7,24.3,15.1,4.4,76,53,29,30.06,29.87,14,4,0,0.00
2013-2-19,48.6,37.9,29.8,39.4,24.9,9.6,93,61,34,29.89,29.56,17,6,0,0.03
2013-2-20,41.4,28.6,22.1,13.4,10.0,6.8,60,46,25,29.87,29.68,14,6,0,0.01
2013-2-21,49.5,30.9,18.9,18.5,13.7,11.0,72,51,24,30.00,29.81,10,4,0,0.00
2013-2-22,32.5,28.1,24.3,30.8,26.6,16.8,99,95,53,30.06,29.84,10,5,0,0.00
2013-2-23,50.7,36.7,28.0,45.0,35.5,27.8,99,96,76,29.86,29.58,5,2,0,0.14
2013-2-24,51.1,39.3,29.8,38.5,27.1,19.5,99,66,32,29.81,29.58,14,4,0,0.00
2013-2-25,38.5,28.7,22.3,24.5,21.4,19.2,91,75,55,29.91,29.80,7,3,0,0.00
2013-2-26,36.1,31.3,25.9,35.8,29.3,19.3,99,93,71,29.87,29.35,9,4,0,0.08
2013-2-27,46.9,36.7,31.5,35.1,32.1,29.1,99,84,59,29.51,29.35,10,4,0,0.01
2013-2-28,34.0,30.5,28.2,30.2,25.0,21.4,96,81,62,29.56,29.42,17,5,0,0.00
2013-3-1,35.1,30.4,28.0,26.3,24.1,21.7,88,77,64,29.63,29.52,13,5,0,0.00
2013-3-2,30.7,26.2,21.7,22.1,19.3,14.7,85,75,64,29.62,29.55,16,5,0,0.00
2013-3-3,28.0,22.3,19.2,18.4,15.5,12.1,84,75,62,29.65,29.56,13,7,0,0.00
2013-3-4,45.5,28.2,17.8,17.0,12.7,7.9,82,56,21,29.82,29.65,16,5,0,0.00
2013-3-5,45.1,35.5,31.5,32.5,26.5,16.5,99,72,42,29.81,29.35,9,3,0,0.80
2013-3-6,36.1,28.7,24.3,31.3,25.8,21.9,99,89,70,29.81,29.32,11,5,0,0.00
2013-3-7,34.9,29.8,27.7,27.3,25.3,22.8,92,83,69,29.99,29.79,13,6,0,0.02
2013-3-8,44.4,33.8,28.4,27.2,23.8,21.5,85,68,48,30.09,29.93,15,6,0,0.13
2013-3-9,62.1,39.9,23.5,32.0,26.0,21.3,91,61,32,30.12,30.03,7,3,0,0.00
2013-3-10,63.5,47.3,36.3,34.9,29.0,23.4,63,49,34,30.09,29.98,12,5,0,0.00
2013-3-11,51.6,46.8,42.1,48.8,35.7,19.0,94,67,37,30.00,29.68,14,6,0,0.02
2013-3-12,51.4,44.1,31.6,51.1,39.1,27.6,99,84,53,29.76,29.52,14,6,0,0.80
2013-3-13,38.7,30.9,23.4,29.7,23.1,15.2,92,73,49,29.85,29.72,15,5,0,0.02
2013-3-14,43.2,29.1,19.8,16.6,14.6,12.9,80,57,31,29.97,29.82,16,6,0,0.00
2013-3-15,57.4,40.8,24.4,34.7,25.0,13.7,67,54,39,29.91,29.67,12,4,0,0.00
2013-3-16,72.7,55.9,40.6,51.2,43.5,33.7,85,65,38,29.67,29.45,11,4,0,0.03
2013-3-17,51.1,39.4,30.6,46.8,38.6,30.4,99,97,85,29.92,29.67,9,3,0,0.17
2013-3-18,31.3,29.4,27.0,31.1,29.2,26.8,99,99,99,29.92,29.61,8,3,0,0.00
2013-3-19,56.3,39.7,30.4,35.8,23.6,1.5,99,62,21,29.80,29.56,16,5,0,0.03
2013-3-20,49.5,36.2,23.4,23.5,10.5,1.5,71,35,21,29.81,29.54,14,4,0,0.00
2013-3-21,31.5,23.5,17.8,25.8,13.7,7.5,86,67,43,29.66,29.47,11,6,0,0.00
2013-3-22,46.4,27.0,14.0,17.3,11.4,7.9,77,56,24,29.76,29.65,11,4,0,0.00
2013-3-23,52.3,35.6,23.5,28.8,21.0,13.4,85,57,38,29.79,29.68,7,2,0,0.00
2013-3-24,34.5,29.3,25.7,31.1,25.8,21.4,99,88,59,29.70,29.28,10,3,0,0.00
2013-3-25,37.4,29.2,25.2,31.4,25.7,21.6,99,88,56,29.50,29.23,10,4,0,0.21
2013-3-26,39.7,30.7,27.7,27.3,24.8,22.6,87,79,59,29.84,29.50,15,5,0,0.09
2013-3-27,37.6,30.2,25.3,26.4,23.4,20.6,94,76,55,29.97,29.83,11,5,0,0.06
2013-3-28,45.3,33.5,27.7,25.8,23.3,20.0,89,67,44,30.04,29.93,12,4,0,0.21
2013-3-29,54.1,36.2,23.0,27.9,24.0,20.8,93,65,31,30.07,29.95,12,2,0,0.00
2013-3-30,63.3,42.8,28.4,31.6,28.5,26.5,97,63,27,30.03,29.86,8,2,0,0.00
2013-3-31,56.7,48.0,43.5,48.8,42.4,28.2,99,82,48,29.87,29.59,9,4,0,0.24
2013-4-1,55.9,45.1,33.8,43.4,37.7,26.1,98,77,50,29.78,29.62,9,4,0,0.00
2013-4-2,50.4,35.8,27.0,26.1,18.4,8.8,82,53,21,29.92,29.77,10,3,0,0.00
2013-4-3,52.9,36.6,26.4,19.4,14.2,9.6,66,42,21,30.11,29.92,12,4,0,0.00
2013-4-4,34.5,30.6,27.3,32.7,21.2,10.3,99,71,39,30.11,29.74,13,3,0,0.02
2013-4-5,58.8,40.9,31.1,39.1,32.4,28.6,99,77,36,29.85,29.69,11,3,0,0.76
2013-4-6,61.7,44.8,29.8,35.0,30.1,25.7,92,60,36,30.05,29.85,9,4,0,0.00
2013-4-7,66.9,50.8,37.2,43.8,36.5,27.5,79,59,41,30.01,29.88,11,4,0,0.00
2013-4-8,76.8,60.9,44.8,50.0,44.7,39.9,84,58,31,29.97,29.85,12,4,0,0.00
2013-4-9,86.5,66.4,53.1,53.0,50.3,47.1,80,58,30,30.03,29.89,9,3,0,0.00
2013-4-10,89.4,70.9,58.6,56.7,53.1,50.0,78,56,27,29.94,29.76,9,3,0,0.00
2013-4-11,78.1,66.9,58.6,58.6,54.2,49.7,82,65,40,29.78,29.57,14,5,0,0.00
2013-4-12,72.3,60.5,50.5,61.0,51.1,35.8,99,74,34,29.60,29.46,16,6,0,2.11
2013-4-13,69.3,54.6,41.4,37.1,32.6,26.7,75,46,23,29.83,29.59,14,5,0,0.00
2013-4-14,73.0,58.5,42.4,43.7,34.7,29.7,66,43,25,29.94,29.84,15,4,0,0.00
2013-4-15,58.1,50.9,47.1,51.7,48.8,39.6,99,93,50,30.08,29.88,11,4,0,0.34
2013-4-16,76.8,60.1,51.1,60.4,55.0,50.8,99,85,57,30.15,30.01,11,4,0,0.00
2013-4-17,79.2,63.5,55.4,59.3,56.2,53.0,95,79,50,30.09,29.98,7,2,0,0.00
2013-4-18,72.0,63.8,58.1,59.3,56.2,52.6,94,77,54,30.01,29.82,16,6,0,0.00
2013-4-19,63.5,58.3,42.1,61.3,55.7,38.8,98,91,83,29.81,29.52,17,8,0,0.57
2013-4-20,57.2,42.9,33.3,37.2,29.0,25.6,84,61,31,30.11,29.67,16,5,0,0.00
2013-4-21,57.7,42.3,31.8,35.4,30.1,23.7,80,63,43,30.30,30.10,12,4,0,0.00
2013-4-22,59.2,43.3,30.2,34.2,29.5,22.3,94,62,27,30.27,30.09,9,4,0,0.00
2013-4-23,67.6,51.9,40.3,49.3,42.0,33.9,87,71,49,30.11,29.91,10,4,0,0.00
2013-4-24,70.9,57.9,46.6,55.5,49.7,43.5,94,76,48,29.94,29.76,14,5,0,0.00
2013-4-25,66.6,47.3,33.1,42.9,29.5,14.6,89,57,14,30.14,29.89,9,3,0,0.00
2013-4-26,67.1,48.4,30.6,38.0,32.9,26.7,92,58,31,30.26,30.14,11,2,0,0.00
2013-4-27,62.4,53.1,47.7,48.8,41.7,34.9,91,66,50,30.19,30.08,9,3,0,0.00
2013-4-28,51.6,48.5,46.4,49.9,47.2,45.8,99,95,86,30.08,29.85,13,6,0,0.59
2013-4-29,66.4,52.9,46.0,55.6,50.6,45.7,99,92,62,29.91,29.81,8,2,0,0.10
2013-4-30,68.9,56.3,51.6,56.6,52.8,50.2,99,89,63,30.05,29.86,9,3,0,0.00
2013-5-1,67.5,54.7,50.2,53.5,49.8,45.1,99,85,57,30.18,30.04,10,3,0,0.04
2013-5-2,60.6,52.7,46.6,52.4,46.1,38.1,90,78,68,30.19,30.10,8,4,0,0.00
2013-5-3,59.5,50.4,44.8,48.0,45.1,41.6,95,82,64,30.12,30.02,12,4,0,0.00
2013-5-4,60.6,46.0,39.2,47.3,41.9,37.5,95,86,59,30.02,29.91,13,5,0,0.00
2013-5-5,47.7,44.3,38.7,47.2,40.7,31.1,99,87,69,29.95,29.80,10,5,0,0.58
2013-5-6,53.6,49.0,46.4,52.2,48.0,45.5,99,96,94,29.84,29.68,11,4,0,3.77
2013-5-7,57.2,51.0,43.0,52.2,49.3,41.7,97,94,78,29.76,29.69,6,1,0,1.17
2013-5-8,57.7,47.7,40.6,51.6,46.0,39.6,97,94,80,29.85,29.72,8,1,0,0.63
2013-5-9,77.7,58.7,44.6,55.0,49.7,43.8,98,76,40,29.92,29.82,9,2,0,0.01
2013-5-10,77.5,61.8,49.5,59.7,53.5,47.6,94,77,46,29.93,29.77,11,3,0,0.35
2013-5-11,74.5,62.0,55.9,58.7,55.4,52.2,95,80,56,29.80,29.63,9,3,0,0.00
2013-5-12,60.6,50.4,37.8,50.6,37.1,28.8,87,63,36,29.86,29.66,12,4,0,0.00
2013-5-13,59.7,44.7,31.8,32.3,29.3,25.1,88,59,30,29.99,29.85,6,2,0,0.00
2013-5-14,69.3,49.6,30.6,44.0,35.3,27.9,95,63,28,30.04,29.85,8,2,0,0.00
2013-5-15,88.9,69.4,52.2,58.4,53.9,43.4,81,60,34,29.89,29.73,10,4,0,0.00
2013-5-16,81.7,68.2,60.8,57.7,54.6,50.3,78,63,44,29.86,29.76,8,3,0,0.00
2013-5-17,82.9,65.5,54.0,61.8,57.2,51.4,95,76,42,29.97,29.86,10,2,0,0.28
2013-5-18,64.6,60.1,56.5,61.0,58.7,55.1,98,95,87,30.02,29.94,7,3,0,0.30
2013-5-19,68.9,62.1,59.2,64.2,60.5,58.3,98,95,85,30.00,29.91,9,4,0,0.62
2013-5-20,81.1,63.2,57.6,68.5,60.9,56.8,98,93,65,29.98,29.88,6,1,0,0.05
2013-5-21,89.6,68.7,58.1,67.3,62.1,57.3,98,82,40,29.92,29.80,8,2,0,0.01
2013-5-23,75.9,62.7,57.6,65.8,58.3,55.3,93,86,71,29.73,29.66,9,3,0,0.00
2013-5-24,59.4,52.1,42.4,55.1,43.4,33.2,92,74,44,30.01,29.67,13,5,0,0.00
2013-5-25,67.8,50.5,36.7,37.5,32.4,23.7,85,55,25,30.12,30.01,14,4,0,0.00
2013-5-26,72.7,55.7,44.6,44.4,40.0,37.0,81,59,30,30.11,30.01,6,2,0,0.00
2013-5-27,74.5,59.1,43.5,57.7,47.4,35.5,88,66,47,30.14,30.00,10,3,0,0.00
2013-5-28,81.1,67.6,52.9,64.0,57.8,50.9,96,73,43,30.08,29.98,10,3,0,0.00
2013-5-29,83.8,70.2,59.2,64.8,60.2,55.6,94,73,43,30.09,30.01,9,3,0,0.00
2013-5-30,84.9,69.5,56.3,67.3,60.3,54.6,94,74,49,30.13,30.05,10,3,0,0.00
2013-5-31,82.4,68.6,56.3,65.8,60.4,54.8,96,77,53,30.09,29.98,12,3,0,0.00
2013-6-1,83.5,70.6,59.9,67.0,61.9,57.4,95,76,51,29.99,29.87,10,4,0,0.00
2013-6-2,75.0,67.2,61.9,68.2,63.1,60.5,95,87,78,29.89,29.77,8,3,0,0.43
2013-6-3,77.2,66.4,55.4,65.7,61.5,54.0,97,85,59,29.87,29.72,7,2,0,0.08
2013-6-4,72.9,60.7,51.6,63.5,56.7,50.8,99,88,60,29.98,29.86,8,2,0,0.00
2013-6-5,67.6,61.9,55.9,62.6,59.2,54.5,97,91,81,30.01,29.90,8,4,0,0.00
2013-6-6,67.6,61.6,57.6,65.2,60.4,57.3,99,96,92,29.89,29.68,8,3,0,1.66
2013-6-7,70.3,64.2,57.2,67.6,62.8,56.1,99,95,90,29.70,29.50,6,2,0,0.36
2013-6-8,85.5,64.7,54.7,64.3,58.8,54.1,99,84,45,29.98,29.70,6,1,0,0.19
2013-6-9,81.1,69.6,61.2,68.2,64.0,59.9,98,84,56,30.05,29.94,11,3,0,0.43
2013-6-10,74.8,67.0,60.4,68.5,64.3,58.7,97,92,78,29.95,29.72,14,4,0,0.31
2013-6-11,79.0,66.9,58.5,64.9,61.4,57.7,97,84,60,29.84,29.74,11,3,0,0.24
2013-6-12,88.9,72.9,60.1,73.1,66.2,58.7,96,81,55,29.85,29.77,8,2,0,0.00
2013-6-13,85.8,71.0,57.9,70.3,65.3,54.1,94,83,56,29.77,29.47,12,4,0,0.09
2013-6-14,77.0,62.6,53.8,58.4,54.9,51.1,96,78,47,29.91,29.64,7,3,0,0.00
2013-6-15,83.7,64.5,49.8,59.9,55.0,49.5,99,76,39,30.02,29.91,6,1,0,0.00
2013-6-16,82.9,69.6,57.7,67.7,62.5,55.1,95,79,56,29.97,29.88,14,2,0,0.00
2013-6-17,82.4,69.2,61.5,70.2,64.9,60.9,99,87,58,29.92,29.80,8,2,0,0.21
2013-6-18,71.4,65.2,56.5,68.1,63.7,55.9,98,95,82,29.84,29.68,6,1,0,0.75
2013-6-19,75.4,64.7,56.3,66.3,61.7,55.7,99,91,71,30.01,29.79,9,2,0,0.05
2013-6-20,74.1,65.7,60.6,66.4,62.7,59.5,98,91,76,30.13,30.01,10,3,0,0.00
2013-6-21,82.6,66.1,54.9,67.0,60.8,54.2,99,85,57,30.16,30.09,8,2,0,0.00
2013-6-22,82.8,66.3,51.1,66.5,60.2,50.6,99,83,50,30.14,30.02,9,2,0,0.00
2013-6-23,88.9,70.9,61.0,69.0,65.0,60.1,99,84,44,30.10,30.01,7,2,0,0.00
2013-6-24,83.8,70.9,61.9,71.6,66.5,61.6,99,87,57,30.09,29.97,6,1,0,0.05
2013-6-25,86.0,70.8,61.9,72.0,66.7,61.6,99,88,61,30.02,29.90,7,1,0,0.01
2013-6-26,84.9,69.1,63.0,71.9,66.2,61.9,99,91,62,29.90,29.79,9,1,0,0.26
2013-6-27,81.9,69.5,63.5,71.6,66.5,63.2,99,91,68,29.80,29.60,7,2,0,0.13
2013-6-28,85.5,73.0,64.4,72.9,66.6,62.0,98,82,58,29.63,29.43,10,3,0,0.00
2013-6-29,82.4,68.9,60.4,68.2,63.4,59.3,98,84,54,29.61,29.47,10,2,0,0.22
2013-6-30,81.3,67.7,59.7,71.6,64.9,59.4,99,91,68,29.73,29.58,8,3,0,1.76
2013-7-1,77.2,67.8,62.2,69.0,65.2,61.6,98,92,75,29.85,29.69,9,5,0,0.06
2013-7-2,72.3,67.0,64.9,68.9,65.3,63.7,98,95,89,30.04,29.84,12,5,0,1.62
2013-7-3,72.3,67.7,65.1,69.9,66.7,64.5,98,97,92,30.12,30.01,8,3,0,1.81
2013-7-4,80.2,68.6,65.3,72.1,67.1,65.0,99,95,74,30.15,30.09,13,4,0,2.47
2013-7-5,81.1,71.1,65.8,72.1,68.2,64.8,97,91,74,30.14,30.06,13,5,0,0.11
2013-7-6,82.2,70.8,63.0,70.5,66.5,62.4,99,87,62,30.13,30.02,9,3,0,0.06
2013-7-7,79.5,69.5,64.0,72.5,67.0,63.1,97,92,77,30.06,29.97,10,2,0,0.18
2013-7-8,88.3,71.2,63.1,69.5,65.3,62.7,99,84,48,30.07,30.00,7,2,0,0.00
2013-7-9,90.9,74.0,65.1,72.1,67.5,62.1,96,82,42,30.07,29.95,6,1,0,0.00
2013-7-10,84.6,70.8,65.8,75.3,67.9,64.3,97,91,59,29.98,29.84,7,1,0,3.35
2013-7-11,80.2,70.1,65.3,73.6,67.7,64.1,98,93,76,29.84,29.76,3,1,0,0.20
2013-7-12,75.7,65.7,62.6,66.7,63.7,61.0,99,94,73,29.92,29.76,5,1,0,0.00
2013-7-13,71.1,65.5,62.1,69.0,64.4,61.0,99,96,92,30.08,29.92,9,3,0,0.33
2013-7-14,80.4,70.6,65.7,71.5,67.7,64.8,99,91,70,30.22,30.07,13,6,0,0.32
2013-7-15,86.5,73.0,65.1,71.4,68.0,64.2,98,86,55,30.27,30.19,6,2,0,0.00
2013-7-16,94.1,73.8,62.8,74.0,68.0,62.5,99,84,50,30.24,30.14,4,1,0,0.00
2013-7-17,90.1,74.9,66.2,75.4,70.2,65.0,97,86,61,30.19,30.07,4,1,0,0.00
2013-7-18,89.6,75.1,66.4,75.8,70.1,65.5,99,86,57,30.11,29.99,7,1,0,0.00
2013-7-19,90.1,74.7,65.3,74.1,69.2,64.7,99,85,52,30.03,29.88,8,2,0,0.00
2013-7-20,89.2,74.4,67.6,73.8,69.4,65.2,95,85,58,29.91,29.80,5,2,0,0.00
2013-7-21,83.3,72.4,64.0,72.6,68.2,63.1,97,87,69,29.89,29.82,7,1,0,0.00
2013-7-22,81.3,71.2,65.5,73.9,67.8,64.5,97,89,68,29.86,29.71,8,2,0,0.56
2013-7-23,86.2,72.4,64.4,71.3,66.4,62.3,97,83,56,29.71,29.64,5,2,0,0.02
2013-7-24,87.6,71.5,63.5,69.2,64.5,61.7,96,81,46,29.78,29.65,7,1,0,0.00
2013-7-25,81.7,66.8,58.3,65.6,61.6,56.9,96,85,55,29.94,29.77,8,2,0,0.26
2013-7-26,85.5,66.2,53.2,67.0,61.1,52.1,97,85,53,30.00,29.91,10,3,0,0.00
2013-7-27,68.5,64.5,62.4,65.5,62.6,60.6,96,94,90,29.93,29.82,10,4,0,0.84
2013-7-28,85.3,68.7,59.4,69.2,63.4,57.7,95,84,54,29.91,29.79,6,2,0,0.00
2013-7-29,82.0,64.3,53.8,59.4,56.1,51.2,98,78,43,30.09,29.92,10,1,0,0.00
2013-7-30,78.8,63.6,50.7,65.7,57.6,49.3,97,82,60,30.15,30.04,6,1,0,0.00
2013-7-31,71.2,64.3,60.6,65.8,61.9,59.2,97,92,80,30.06,29.88,4,1,0,0.08
2013-8-1,84.9,70.0,61.2,70.9,65.1,59.8,99,86,58,29.88,29.76,7,2,0,0.09
2013-8-2,84.7,67.7,57.7,65.6,61.0,57.1,99,82,45,29.93,29.82,6,1,0,0.00
2013-8-3,86.4,68.7,58.1,69.8,63.4,56.4,95,84,58,29.92,29.84,7,1,0,0.00
2013-8-4,81.5,69.0,58.1,65.6,62.0,56.4,97,81,49,29.95,29.82,6,2,0,0.00
2013-8-5,75.0,63.7,53.4,66.2,59.4,52.3,96,86,71,30.00,29.88,10,3,0,0.00
2013-8-6,80.1,69.2,62.4,71.9,65.9,61.4,98,90,72,29.92,29.85,8,2,0,0.00
2013-8-7,74.1,68.4,65.1,71.6,66.9,63.9,97,95,89,29.98,29.91,8,3,0,0.02
2013-8-8,80.1,71.2,66.0,74.5,68.9,64.8,98,93,82,29.95,29.89,7,3,0,0.01
2013-8-9,91.0,74.7,66.7,76.5,70.9,66.4,99,89,61,29.93,29.87,8,2,0,0.00
2013-8-10,86.4,74.1,66.7,74.1,70.3,66.1,99,89,67,30.00,29.93,10,2,0,0.00
2013-8-11,90.5,73.1,63.9,76.1,69.3,63.6,99,89,57,30.03,29.93,5,1,0,0.16
2013-8-12,88.0,72.1,65.1,73.5,68.3,64.8,99,89,58,29.98,29.85,6,1,0,0.42
2013-8-13,81.1,69.0,61.9,72.5,67.2,61.3,99,95,72,29.86,29.70,8,2,0,0.12
2013-8-14,77.0,62.3,50.7,61.6,56.1,50.2,99,83,44,29.99,29.75,5,2,0,0.00
2013-8-15,74.3,57.2,46.4,58.3,52.2,46.1,99,85,54,30.05,29.96,8,2,0,0.00
2013-8-16,75.2,57.7,46.6,61.5,53.6,46.3,99,87,61,30.06,29.99,7,2,0,0.00
2013-8-17,65.3,57.2,50.0,61.0,56.1,49.7,99,96,85,30.12,30.05,11,2,0,0.65
2013-8-18,68.2,62.0,59.0,66.3,61.3,58.7,99,98,93,30.11,30.02,6,2,0,0.93
2013-8-19,75.9,66.1,60.6,70.6,64.6,60.3,99,95,79,30.09,29.97,5,1,0,0.24
2013-8-20,81.1,67.7,59.2,72.6,65.9,58.9,99,94,74,30.09,30.00,8,2,0,0.00
2013-8-21,85.6,69.5,61.2,75.4,67.5,60.9,99,94,68,30.12,30.00,6,1,0,0.21
2013-8-22,86.4,69.5,60.4,72.5,66.1,60.1,99,90,61,30.05,29.92,6,1,0,0.01
2013-8-23,85.1,67.9,60.8,72.9,65.2,59.9,99,92,62,30.01,29.85,6,1,0,0.00
2013-8-24,81.7,63.0,52.2,61.8,56.5,51.9,99,82,45,30.22,30.01,7,1,0,0.00
2013-8-25,81.3,62.5,51.4,63.4,55.4,49.8,99,81,42,30.30,30.19,10,1,0,0.00
2013-8-26,87.3,64.7,51.6,66.1,58.7,51.3,99,84,45,30.23,30.00,5,1,0,0.00
2013-8-27,83.5,69.6,59.7,73.5,66.7,59.1,99,91,71,30.00,29.87,6,2,0,0.00
2013-8-28,86.0,71.4,64.8,76.1,68.4,64.5,99,91,64,29.92,29.77,7,2,0,0.02
2013-8-29,87.6,73.0,66.9,75.3,69.8,66.3,98,90,64,29.94,29.75,8,2,0,0.00
2013-8-30,87.4,70.4,61.2,73.4,67.0,60.9,99,90,58,29.96,29.83,7,2,0,0.00
2013-8-31,91.2,70.7,63.0,74.4,67.0,62.5,99,89,49,29.85,29.75,5,1,0,0.01
2013-9-1,87.3,70.3,62.6,75.0,67.4,62.3,99,91,58,29.79,29.70,8,1,0,0.05
2013-9-2,88.9,71.5,64.2,72.4,67.5,63.9,99,89,58,29.80,29.71,9,2,0,0.01
2013-9-3,86.0,69.8,57.6,71.6,64.4,56.8,99,85,50,29.88,29.71,8,2,0,0.00
2013-9-4,87.4,64.0,51.4,63.1,56.4,51.1,99,81,33,30.00,29.88,6,1,0,0.01
2013-9-5,86.0,64.5,53.1,64.8,57.8,52.8,99,82,42,30.04,29.95,7,2,0,0.00
2013-9-6,79.9,61.7,52.9,62.3,57.2,51.8,99,87,54,30.10,29.99,8,2,0,0.00
2013-9-7,88.9,64.2,49.8,65.5,56.7,49.3,99,81,35,30.02,29.85,6,1,0,0.00
2013-9-8,85.6,66.9,54.5,70.4,62.0,53.7,98,86,58,29.92,29.82,5,1,0,0.00
2013-9-9,79.5,66.4,60.8,70.1,64.3,60.2,99,94,73,30.07,29.92,8,3,0,0.00
2013-9-10,84.2,70.4,62.6,73.3,67.4,62.3,99,91,68,30.14,30.04,6,1,0,0.00
2013-9-11,85.6,71.2,62.4,75.2,68.2,62.1,99,91,71,30.11,29.97,5,1,0,0.00
2013-9-12,86.7,70.7,62.2,73.5,66.9,61.2,99,89,60,29.98,29.72,5,1,0,0.00
2013-9-13,75.4,62.8,48.9,62.0,54.5,46.1,97,77,41,29.83,29.67,11,2,0,0.00
2013-9-14,77.9,54.4,40.8,50.9,46.4,40.0,99,79,34,30.00,29.80,5,1,0,0.00
2013-9-15,77.0,58.3,45.3,60.3,53.0,44.5,98,84,51,30.10,29.99,7,2,0,0.00
2013-9-16,73.8,60.5,48.4,63.7,57.7,47.6,98,91,68,30.10,29.98,7,2,0,0.00
2013-9-17,69.3,52.9,43.9,56.1,49.4,43.4,99,89,55,30.24,30.10,8,2,0,0.00
2013-9-18,66.9,54.1,45.3,58.4,51.4,44.2,97,91,74,30.17,30.04,6,3,0,0.00
2013-9-19,73.0,61.7,55.4,66.1,59.4,53.4,98,93,79,30.06,29.95,4,1,0,0.08
2013-9-20,75.9,63.6,60.8,70.0,62.7,60.2,99,97,82,29.96,29.82,6,1,0,0.59
2013-9-21,65.1,60.8,55.2,64.0,60.2,54.9,99,98,96,29.83,29.58,10,3,0,0.58
2013-9-22,75.4,57.5,47.7,59.8,53.5,46.9,99,88,51,29.79,29.62,5,2,0,0.01
2013-9-23,77.0,55.3,45.0,59.1,51.1,44.5,99,88,48,29.93,29.79,5,1,0,0.00
2013-9-24,82.4,59.2,47.5,62.2,55.0,47.0,98,88,45,29.95,29.80,5,2,0,0.00
2013-9-25,65.5,56.6,49.8,60.4,55.0,49.5,99,95,81,29.83,29.73,7,1,0,0.03
2013-9-26,79.7,60.3,51.6,58.7,54.7,49.9,98,84,43,29.93,29.77,7,1,0,0.01
2013-9-27,72.9,56.5,45.3,57.3,50.9,44.5,99,84,53,30.07,29.93,7,1,0,0.00
2013-9-28,65.8,55.0,44.4,56.1,52.0,43.3,96,90,70,30.14,30.06,5,1,0,0.00
2013-9-29,72.0,54.4,44.2,58.3,50.2,43.4,99,87,57,30.06,29.91,5,1,0,0.00
2013-9-30,75.2,57.7,46.8,60.9,52.9,45.5,98,86,52,29.96,29.87,4,0,0,0.00
2013-10-1,82.4,60.4,49.6,62.1,54.4,49.3,99,84,42,30.01,29.92,6,1,0,0.00
2013-10-2,83.1,61.6,49.8,64.8,56.0,49.3,99,85,45,30.04,29.94,5,1,0,0.00
2013-10-3,78.8,63.0,53.4,65.0,58.6,52.8,98,87,56,30.03,29.95,4,0,0,0.00
2013-10-4,84.9,65.3,54.3,67.7,60.4,53.7,99,86,51,30.05,29.95,6,1,0,0.00
2013-10-5,86.4,66.4,55.9,67.7,60.9,55.3,99,85,47,30.04,29.93,6,1,0,0.00
2013-10-6,77.7,65.7,55.9,66.3,60.9,55.6,99,86,60,29.94,29.77,13,4,0,0.00
2013-10-7,65.3,58.1,43.5,63.4,55.5,42.4,99,91,74,29.92,29.65,11,3,0,1.01
2013-10-8,67.3,50.8,41.2,50.9,44.5,40.1,97,81,51,30.10,29.90,7,2,0,0.00
2013-10-9,69.3,51.9,42.6,47.6,43.6,39.1,95,76,36,30.12,30.01,6,2,0,0.00
2013-10-10,59.7,51.4,44.6,58.3,50.0,42.6,98,95,87,30.00,29.84,6,2,0,0.16
2013-10-11,67.1,59.3,54.3,62.4,57.4,53.7,98,93,85,29.85,29.79,5,2,0,0.00
2013-10-12,62.6,58.1,54.9,60.6,57.1,54.1,98,96,93,29.99,29.84,4,2,0,0.08
2013-10-13,63.0,58.1,55.6,60.7,57.1,55.0,98,96,91,30.12,29.98,5,2,0,0.10
2013-10-14,70.0,57.6,53.1,61.6,55.8,52.3,98,94,72,30.14,30.05,5,1,0,0.24
2013-10-15,70.3,53.6,43.9,56.1,49.3,43.6,99,87,51,30.09,29.94,6,1,0,0.00
2013-10-16,68.7,57.0,46.9,60.4,53.7,45.8,99,89,70,29.96,29.80,6,1,0,0.00
2013-10-17,64.6,59.0,51.4,62.2,57.5,50.0,97,95,88,29.82,29.67,7,2,0,0.09
2013-10-18,70.0,51.0,41.5,49.2,44.1,39.9,97,81,36,29.88,29.76,8,2,0,0.00
2013-10-19,61.2,52.0,44.8,56.7,49.1,43.1,98,90,68,29.83,29.66,11,2,0,0.00
2013-10-20,67.8,45.5,32.5,43.1,35.4,29.2,96,73,25,29.93,29.75,6,2,0,0.00
2013-10-21,69.3,48.9,35.2,49.1,42.1,33.8,96,79,46,29.97,29.81,9,2,0,0.00
2013-10-22,66.6,52.8,45.9,49.7,46.8,43.4,95,81,53,29.81,29.63,8,2,0,0.01
2013-10-23,54.1,44.0,33.4,47.4,39.9,30.2,97,86,57,29.76,29.52,12,3,0,0.12
2013-10-24,43.0,35.2,28.0,33.2,29.9,25.5,92,81,65,29.95,29.76,8,3,0,0.00
2013-10-25,47.3,33.1,23.9,32.3,26.9,21.5,96,80,45,30.12,29.94,10,3,0,0.00
2013-10-26,59.7,37.9,21.7,31.1,25.7,20.4,96,67,26,30.11,29.82,8,2,0,0.00
2013-10-27,66.2,48.4,36.3,39.5,35.9,28.1,86,64,35,29.94,29.82,10,3,0,0.00
2013-10-28,59.7,47.9,37.9,53.2,45.2,36.4,98,91,76,30.11,29.94,5,1,0,0.01
2013-10-29,65.3,53.9,45.5,53.9,50.1,44.7,98,88,64,30.19,30.10,7,2,0,0.00
2013-10-30,70.3,57.3,52.0,61.2,53.8,48.9,96,88,72,30.13,30.00,7,2,0,0.09
2013-10-31,63.7,59.5,55.4,57.4,55.4,53.1,92,86,77,30.04,29.65,20,5,0,0.00
2013-11-1,78.6,62.3,51.6,59.0,55.1,44.6,95,79,40,29.65,29.47,32,5,0,0.10
2013-11-2,61.3,50.1,41.4,44.5,37.7,30.5,87,65,36,29.76,29.53,10,4,0,0.00
2013-11-3,56.3,41.7,30.9,35.9,32.7,28.2,90,72,42,30.18,29.75,10,3,0,0.00
2013-11-4,51.3,37.0,30.6,31.8,27.6,23.4,89,69,47,30.34,30.17,8,3,0,0.00
2013-11-5,50.7,40.3,29.5,44.7,34.3,23.7,96,79,67,30.37,30.26,8,3,0,0.00
2013-11-6,67.3,52.2,44.6,52.1,46.9,43.4,98,83,54,30.26,29.94,12,4,0,0.01
2013-11-7,54.5,46.5,33.8,52.2,41.6,27.1,95,83,59,29.93,29.79,16,4,0,0.00
2013-11-8,48.2,35.0,24.6,27.8,23.5,21.0,87,65,37,30.10,29.90,12,3,0,0.00
2013-11-9,56.8,38.9,24.3,28.5,24.3,21.1,88,59,30,30.12,29.93,10,2,0,0.00
2013-11-10,60.8,46.6,33.6,35.6,27.4,20.7,71,49,23,30.07,29.88,19,6,0,0.00
2013-11-11,64.6,42.1,26.1,27.7,23.9,21.2,85,52,23,30.13,29.91,9,3,0,0.00
2013-11-12,46.8,35.9,21.9,35.8,22.0,13.9,76,59,33,30.18,29.82,12,5,0,0.00
2013-11-13,41.5,26.9,19.4,16.9,14.3,11.3,83,61,30,30.26,30.14,15,4,0,0.00
2013-11-14,61.3,35.3,20.7,20.6,15.2,9.5,80,49,14,30.20,30.07,8,2,0,0.00
2013-11-15,62.2,43.6,28.4,45.6,28.1,13.6,96,60,18,30.10,29.99,7,2,0,0.41
2013-11-16,52.7,48.6,42.6,50.5,47.7,41.8,99,97,92,30.09,30.01,10,3,0,0.07
2013-11-17,57.9,53.0,49.6,57.1,52.3,49.3,99,98,91,30.03,29.65,17,6,0,0.07
2013-11-18,62.1,51.1,39.9,57.5,37.8,25.2,98,64,30,29.79,29.62,12,5,0,0.17
2013-11-19,51.1,36.2,28.9,26.4,24.6,22.7,82,64,37,30.07,29.75,11,3,0,0.00
2013-11-20,46.9,33.7,27.1,25.3,23.5,21.2,81,67,41,30.24,30.07,9,4,0,0.00
2013-11-21,53.4,41.3,32.7,47.7,37.5,25.2,92,86,73,30.29,30.19,9,3,0,0.00
2013-11-22,69.6,55.0,46.9,56.4,51.0,43.2,96,87,63,30.20,29.91,9,3,0,0.01
2013-11-23,51.6,39.5,25.2,49.9,31.0,11.8,94,73,39,29.97,29.86,11,5,0,0.00
2013-11-24,28.2,19.9,13.3,14.6,4.9,-0.3,74,53,30,30.21,29.95,15,5,0,0.00
2013-11-25,37.2,23.5,12.0,12.5,7.0,3.7,82,51,29,30.22,30.06,6,3,0,0.00
2013-11-26,41.2,34.6,25.0,40.9,33.4,17.3,99,96,65,30.07,29.40,9,3,0,2.46
2013-11-27,38.3,26.4,17.2,38.0,24.4,12.4,99,92,80,29.82,29.33,15,7,0,0.06
2013-11-28,41.4,23.9,16.2,22.1,16.3,12.3,90,75,34,30.19,29.82,11,3,0,0.07
2013-11-29,49.8,30.4,23.4,24.6,19.7,14.6,82,66,34,30.40,30.17,14,2,0,0.01
2013-11-30,39.4,26.6,19.4,25.0,19.7,15.4,85,76,54,30.38,30.09,8,3,0,0.00
2013-12-1,57.7,35.6,22.1,27.3,22.9,18.1,86,64,26,30.09,29.80,7,2,0,0.00
2013-12-2,50.0,38.2,28.0,37.5,32.3,24.4,92,80,62,29.79,29.61,5,1,0,0.00
2013-12-3,58.6,44.4,33.1,44.8,39.1,30.5,95,82,57,29.77,29.63,7,2,0,0.00
2013-12-4,64.0,51.0,44.6,54.0,48.2,43.7,98,91,69,29.88,29.75,9,3,0,0.00
2013-12-5,66.6,57.5,50.0,60.6,55.0,49.5,98,91,76,29.92,29.81,10,4,0,0.02
2013-12-6,67.8,60.3,41.9,64.1,58.6,41.1,98,94,88,29.87,29.73,14,5,0,0.62
2013-12-7,41.4,34.0,29.7,40.6,32.6,28.2,98,95,91,30.21,29.85,11,4,0,0.11
2013-12-8,31.3,26.4,23.4,30.3,25.3,22.4,97,95,90,30.20,29.97,10,3,0,0.00
2013-12-9,46.9,38.6,30.0,46.4,37.9,29.3,99,97,93,29.97,29.82,6,2,0,0.09
2013-12-10,36.5,31.0,23.7,36.0,28.8,18.5,98,91,79,29.99,29.71,10,4,0,0.49
2013-12-11,46.6,30.1,20.3,21.5,16.9,13.3,87,61,30,30.14,29.99,9,4,0,0.00
2013-12-12,35.4,25.1,20.1,18.5,11.2,3.7,75,57,29,30.13,30.00,11,4,0,0.00
2013-12-13,48.9,30.8,19.0,20.2,14.2,6.8,67,51,24,30.08,29.99,7,2,0,0.00
2013-12-14,36.0,31.4,29.8,30.0,28.0,19.2,97,88,50,30.06,29.52,9,3,0,0.11
2013-12-15,36.0,31.6,27.1,35.7,29.4,24.3,99,91,85,29.77,29.47,15,6,0,0.03
2013-12-16,43.9,31.7,25.3,32.4,27.5,23.5,93,85,62,29.88,29.76,14,3,0,0.00
2013-12-17,52.0,38.3,29.5,34.9,30.9,24.7,94,76,49,29.87,29.66,12,3,0,0.04
2013-12-18,41.4,29.6,22.8,24.5,18.5,13.5,83,65,35,30.02,29.74,18,4,0,0.02
2013-12-19,64.2,41.9,25.0,28.4,21.6,15.1,80,48,20,30.04,29.96,14,2,0,0.00
2013-12-20,65.5,48.3,38.1,37.1,28.4,22.5,68,48,24,29.97,29.88,8,2,0,0.00
2013-12-21,63.3,56.3,47.1,58.7,51.2,37.1,94,83,61,29.90,29.80,15,5,0,0.00
2013-12-22,63.7,57.9,54.0,60.0,56.2,52.6,97,94,85,29.92,29.76,17,6,0,0.93
2013-12-23,57.9,44.5,27.0,57.1,43.2,25.1,99,95,91,29.98,29.79,16,5,0,1.03
2013-12-24,33.6,24.0,14.7,25.1,17.8,7.0,94,78,52,30.16,29.93,12,5,0,0.00
2013-12-25,36.9,20.5,9.1,10.6,7.5,4.1,88,60,29,30.22,30.05,9,3,0,0.00
2013-12-26,43.7,28.8,17.2,24.8,17.3,7.7,76,62,41,30.13,29.98,9,2,0,0.00
2013-12-27,53.2,31.0,19.0,21.3,17.6,13.1,86,61,25,30.21,30.12,5,1,0,0.00
2013-12-28,58.5,38.3,26.2,41.1,21.9,16.6,95,55,22,30.16,29.94,5,1,0,0.15
2013-12-29,45.0,39.8,34.7,43.3,38.4,33.9,99,95,90,29.93,29.46,9,4,0,1.17
2013-12-30,38.5,33.7,27.5,36.1,31.1,25.2,92,90,89,29.89,29.66,12,4,0,0.00
2013-12-31,40.5,30.0,24.1,27.1,20.4,15.3,92,70,38,30.10,29.85,14,3,0,0.00
2014-1-1,46.8,32.0,22.5,25.6,20.4,15.9,85,66,31,30.13,29.86,11,4,0,0.00
2014-1-2,43.5,33.2,22.6,37.0,28.8,20.1,97,84,61,29.86,29.36,18,2,0,0.16